| time (UTC) | temp C | wind direction | speed KPH | gust KPH | rain 1hr cm | rain 24hr cm | rain mn cm | humidity % | barometer mb |
| 20260505162552 | 13 | 51 | 0.0 | 4.8 | 0.38 | 2.72 | 2.72 | 98 | 1015.4 |
| 20260505162053 | 13 | 98 | 0.0 | 4.8 | 0.36 | 2.72 | 2.72 | 98 | 1014.8 |
| 20260505161613 | 13 | 83 | 0.0 | 4.8 | 0.38 | 2.72 | 2.72 | 98 | 1015.6 |
| 20260505161053 | 13 | 0 | 0.0 | 4.8 | 0.36 | 2.67 | 2.67 | 98 | 1014.6 |
| 20260505160553 | 13 | 0 | 0.0 | 3.2 | 0.33 | 2.62 | 2.62 | 98 | 1014.3 |
| 20260505153051 | 13 | 0 | 0.0 | 4.8 | 0.08 | 2.34 | 2.34 | 98 | 1014.4 |
| 20260505152553 | 13 | 0 | 0.0 | 4.8 | 0.08 | 2.34 | 2.34 | 98 | 1014.3 |
| 20260505152053 | 13 | 0 | 0.0 | 3.2 | 0.08 | 2.34 | 2.34 | 98 | 1014.1 |
| 20260505151558 | 13 | 0 | 0.0 | 4.8 | 0.08 | 2.31 | 2.31 | 98 | 1014.4 |
| 20260505151055 | 13 | 80 | 0.0 | 4.8 | 0.08 | 2.31 | 2.31 | 98 | 1014.3 |
| 20260505150553 | 13 | 0 | 0.0 | 4.8 | 0.08 | 2.29 | 2.29 | 98 | 1014.4 |
| 20260505140553 | 12 | 0 | 0.0 | 4.8 | 0.15 | 2.21 | 2.21 | 97 | 1015.8 |
| 20260505130111 | 13 | 123 | 1.6 | 11.3 | 0.86 | 2.01 | 2.01 | 96 | 1016.4 |
| 20260505124600 | 13 | 231 | 4.8 | 11.3 | 0.81 | 1.91 | 1.91 | 96 | 1016.0 |
| 20260505124053 | 13 | 0 | 1.6 | 8.0 | 0.79 | 1.88 | 1.88 | 96 | 1016.1 |
| 20260505123553 | 13 | 235 | 1.6 | 8.0 | 0.76 | 1.88 | 1.88 | 96 | 1016.2 |
| 20260505123054 | 13 | 197 | 1.6 | 11.3 | 0.74 | 1.83 | 1.83 | 95 | 1016.4 |
| 20260505122553 | 13 | 236 | 3.2 | 11.3 | 0.69 | 1.78 | 1.78 | 95 | 1016.4 |
| 20260505122051 | 13 | 214 | 6.4 | 16.1 | 0.64 | 1.75 | 1.75 | 94 | 1016.3 |
| 20260505121552 | 13 | 235 | 6.4 | 16.1 | 0.61 | 1.70 | 1.70 | 93 | 1016.4 |
| 20260505121053 | 15 | 228 | 3.2 | 19.3 | 0.51 | 1.60 | 1.60 | 92 | 1016.5 |
| 20260505120553 | 16 | 236 | 11.3 | 19.3 | 0.46 | 1.55 | 1.55 | 91 | 1016.6 |
| 20260505120111 | 16 | 227 | 4.8 | 6.4 | 0.03 | 1.12 | 1.12 | 91 | 1015.6 |
| 20260505115552 | 17 | 51 | 0.0 | 1.6 | 0.00 | 1.12 | 1.12 | 90 | 1015.5 |
| 20260505115055 | 17 | 0 | 0.0 | 3.2 | 0.00 | 1.12 | 1.12 | 89 | 1015.3 |
| 20260505114555 | 17 | 0 | 0.0 | 3.2 | 0.00 | 1.09 | 1.09 | 87 | 1015.3 |
| 20260505114051 | 17 | 321 | 0.0 | 3.2 | 0.00 | 1.09 | 1.09 | 86 | 1015.3 |
| 20260505113554 | 17 | 67 | 0.0 | 4.8 | 0.00 | 1.09 | 1.09 | 85 | 1015.2 |
| 20260505113105 | 18 | 91 | 0.0 | 4.8 | 0.00 | 1.09 | 1.09 | 85 | 1015.0 |
| 20260505112557 | 18 | 29 | 0.0 | 6.4 | 0.00 | 1.09 | 1.09 | 85 | 1015.1 |
| 20260505112050 | 18 | 0 | 0.0 | 6.4 | 0.00 | 1.09 | 1.09 | 85 | 1015.0 |
| 20260505111553 | 18 | 25 | 0.0 | 6.4 | 0.00 | 1.09 | 1.09 | 84 | 1015.0 |
| 20260505111055 | 18 | 65 | 1.6 | 6.4 | 0.00 | 1.09 | 1.09 | 84 | 1015.1 |
| 20260505110553 | 18 | 0 | 1.6 | 9.7 | 0.00 | 1.09 | 1.09 | 84 | 1015.3 |
| 20260505110106 | 18 | 25 | 1.6 | 14.5 | 0.00 | 1.09 | 1.09 | 83 | 1015.2 |
| 20260505102052 | 19 | 73 | 4.8 | 12.9 | 0.00 | 1.09 | 1.09 | 81 | 1016.2 |
| 20260505101552 | 19 | 56 | 4.8 | 14.5 | 0.00 | 1.09 | 1.09 | 81 | 1016.3 |
| 20260505101052 | 19 | 63 | 1.6 | 14.5 | 0.00 | 1.09 | 1.09 | 82 | 1016.5 |
| 20260505100555 | 19 | 62 | 6.4 | 14.5 | 0.00 | 1.09 | 1.09 | 81 | 1016.5 |
| 20260505100056 | 18 | 319 | 4.8 | 12.9 | 0.00 | 1.09 | 1.09 | 83 | 1016.7 |
| 20260505095552 | 18 | 53 | 3.2 | 12.9 | 0.00 | 1.09 | 1.09 | 85 | 1016.7 |
| 20260505095053 | 18 | 55 | 3.2 | 12.9 | 0.00 | 1.09 | 1.09 | 84 | 1016.8 |
| 20260505094555 | 18 | 71 | 4.8 | 14.5 | 0.00 | 1.09 | 1.09 | 84 | 1016.9 |
| 20260505094055 | 18 | 118 | 3.2 | 14.5 | 0.00 | 1.09 | 1.09 | 85 | 1017.0 |
| 20260505093553 | 18 | 38 | 4.8 | 12.9 | 0.00 | 1.09 | 1.09 | 84 | 1017.1 |
| 20260505093053 | 17 | 23 | 4.8 | 14.5 | 0.00 | 1.09 | 1.09 | 85 | 1017.1 |
| 20260505092553 | 17 | 78 | 4.8 | 19.3 | 0.00 | 1.09 | 1.09 | 85 | 1017.3 |
| 20260505092053 | 17 | 337 | 3.2 | 19.3 | 0.00 | 1.09 | 1.09 | 86 | 1017.3 |
| 20260505091554 | 17 | 68 | 1.6 | 19.3 | 0.00 | 1.09 | 1.09 | 87 | 1017.5 |
| 20260505091050 | 17 | 74 | 1.6 | 9.7 | 0.00 | 1.09 | 1.09 | 88 | 1017.6 |
| 20260505090553 | 17 | 105 | 3.2 | 11.3 | 0.00 | 1.09 | 1.09 | 87 | 1017.6 |
| 20260505090059 | 17 | 321 | 3.2 | 12.9 | 0.00 | 1.09 | 1.09 | 87 | 1017.7 |
| 20260505085552 | 17 | 73 | 4.8 | 12.9 | 0.00 | 1.09 | 1.09 | 88 | 1017.8 |
| 20260505085053 | 16 | 72 | 1.6 | 11.3 | 0.00 | 1.09 | 1.09 | 91 | 1018.0 |
| 20260505084551 | 16 | 73 | 3.2 | 16.1 | 0.00 | 1.09 | 1.09 | 91 | 1018.1 |
| 20260505084052 | 16 | 345 | 6.4 | 16.1 | 0.00 | 1.09 | 1.09 | 91 | 1018.3 |
| 20260505083552 | 16 | 77 | 3.2 | 12.9 | 0.00 | 1.09 | 1.09 | 93 | 1018.4 |
| 20260505083054 | 16 | 45 | 3.2 | 12.9 | 0.00 | 1.09 | 1.09 | 95 | 1018.5 |
| 20260505082553 | 15 | 112 | 4.8 | 12.9 | 0.00 | 1.09 | 1.09 | 95 | 1018.5 |
| 20260505082053 | 15 | 39 | 4.8 | 12.9 | 0.00 | 1.09 | 1.09 | 97 | 1018.5 |
| 20260505081613 | 15 | 126 | 3.2 | 9.7 | 0.00 | 1.09 | 1.09 | 97 | 1018.6 |
| 20260505081053 | 15 | 15 | 1.6 | 8.0 | 0.00 | 1.09 | 1.09 | 98 | 1018.7 |
| 20260505080554 | 15 | 0 | 0.0 | 8.0 | 0.00 | 1.09 | 1.09 | 98 | 1018.8 |
| 20260505080107 | 15 | 0 | 1.6 | 9.7 | 0.00 | 1.09 | 1.09 | 98 | 1018.8 |
| 20260505075556 | 15 | 89 | 3.2 | 9.7 | 0.00 | 1.09 | 1.09 | 98 | 1019.0 |
| 20260505075052 | 15 | 117 | 1.6 | 9.7 | 0.00 | 1.09 | 1.09 | 98 | 1019.0 |
| 20260505074609 | 15 | 58 | 1.6 | 14.5 | 0.00 | 1.09 | 1.09 | 98 | 1019.1 |
| 20260505074053 | 15 | 82 | 3.2 | 14.5 | 0.00 | 1.09 | 1.09 | 98 | 1019.2 |
| 20260505073550 | 15 | 127 | 3.2 | 11.3 | 0.00 | 1.09 | 1.09 | 99 | 1019.4 |
| 20260505073055 | 15 | 0 | 0.0 | 3.2 | 0.00 | 1.09 | 1.09 | 99 | 1019.4 |
| 20260505072551 | 15 | 0 | 0.0 | 6.4 | 0.00 | 1.09 | 1.09 | 99 | 1019.5 |
| 20260505072053 | 15 | 30 | 0.0 | 6.4 | 0.00 | 1.09 | 1.09 | 99 | 1019.5 |
| 20260505071621 | 14 | 63 | 0.0 | 4.8 | 0.00 | 1.09 | 1.09 | 99 | 1019.5 |
| 20260505071050 | 14 | 0 | 0.0 | 4.8 | 0.00 | 1.09 | 1.09 | 99 | 1019.6 |
| 20260505070556 | 14 | 61 | 0.0 | 3.2 | 0.00 | 1.09 | 1.09 | 98 | 1019.5 |
| 20260505070110 | 13 | 68 | 0.0 | 3.2 | 0.00 | 1.09 | 1.09 | 98 | 1019.6 |
| 20260505065552 | 13 | 0 | 0.0 | 1.6 | 0.00 | 1.09 | 1.09 | 98 | 1019.7 |
| 20260505065052 | 14 | 0 | 0.0 | 3.2 | 0.00 | 1.09 | 1.09 | 98 | 1019.8 |
| 20260505064604 | 13 | 0 | 0.0 | 3.2 | 0.00 | 1.09 | 1.09 | 98 | 1020.0 |
| 20260505064056 | 13 | 0 | 0.0 | 4.8 | 0.00 | 1.09 | 1.09 | 98 | 1019.8 |
| 20260505063552 | 13 | 0 | 0.0 | 6.4 | 0.00 | 1.09 | 1.09 | 98 | 1019.7 |
| 20260505063052 | 13 | 0 | 1.6 | 6.4 | 0.00 | 1.09 | 1.09 | 98 | 1019.8 |
| 20260505062553 | 14 | 69 | 0.0 | 6.4 | 0.00 | 1.07 | 1.07 | 99 | 1020.1 |
| 20260505062051 | 13 | 75 | 1.6 | 6.4 | 0.05 | 1.07 | 1.07 | 98 | 1019.9 |
| 20260505061558 | 13 | 89 | 0.0 | 4.8 | 0.05 | 1.07 | 1.07 | 98 | 1019.7 |
| 20260505061055 | 13 | 86 | 0.0 | 4.8 | 0.05 | 1.07 | 1.07 | 98 | 1019.8 |
| 20260505060553 | 13 | 57 | 0.0 | 4.8 | 0.05 | 1.07 | 1.07 | 98 | 1019.7 |
| 20260505060053 | 13 | 31 | 1.6 | 4.8 | 0.05 | 1.07 | 1.07 | 98 | 1019.5 |
| 20260505055553 | 13 | 100 | 0.0 | 4.8 | 0.05 | 1.07 | 1.07 | 98 | 1019.5 |
| 20260505055053 | 13 | 0 | 0.0 | 3.2 | 0.05 | 1.07 | 1.07 | 98 | 1019.4 |
| 20260505054556 | 13 | 74 | 0.0 | 4.8 | 0.05 | 1.07 | 1.07 | 98 | 1019.6 |
| 20260505054055 | 13 | 63 | 0.0 | 6.4 | 0.05 | 1.07 | 1.07 | 98 | 1019.7 |
| 20260505053553 | 12 | 0 | 0.0 | 6.4 | 0.05 | 1.07 | 1.07 | 98 | 1019.4 |
| 20260505053104 | 12 | 59 | 1.6 | 6.4 | 0.05 | 1.07 | 1.07 | 98 | 1019.5 |
| 20260505052552 | 12 | 81 | 0.0 | 3.2 | 0.05 | 1.07 | 1.07 | 98 | 1019.7 |
| 20260505052056 | 12 | 83 | 0.0 | 0.0 | 0.00 | 1.02 | 1.02 | 98 | 1019.8 |
| 20260505051554 | 12 | 0 | 0.0 | 0.0 | 0.00 | 1.02 | 1.02 | 98 | 1019.7 |
| 20260505051053 | 12 | 0 | 0.0 | 1.6 | 0.00 | 1.02 | 1.02 | 98 | 1019.5 |
| 20260505050552 | 12 | 0 | 0.0 | 1.6 | 0.00 | 1.02 | 1.02 | 98 | 1019.5 |
| 20260505041555 | 12 | 0 | 0.0 | 4.8 | 0.00 | 1.02 | 1.02 | 98 | 1019.8 |
| 20260505041053 | 12 | 0 | 0.0 | 4.8 | 0.00 | 1.02 | 1.02 | 98 | 1019.8 |
| 20260505040553 | 12 | 89 | 0.0 | 3.2 | 0.00 | 1.02 | 1.02 | 98 | 1019.8 |
| 20260505040054 | 12 | 0 | 0.0 | 3.2 | 0.00 | 1.02 | 1.02 | 98 | 1019.9 |
| 20260505035551 | 12 | 0 | 0.0 | 3.2 | 0.00 | 1.02 | 1.02 | 98 | 1019.8 |
| 20260505035051 | 12 | 89 | 0.0 | 3.2 | 0.00 | 1.02 | 1.02 | 98 | 1019.8 |
| 20260505034557 | 12 | 89 | 0.0 | 1.6 | 0.00 | 1.02 | 1.02 | 98 | 1020.0 |
| 20260505034051 | 12 | 89 | 0.0 | 1.6 | 0.00 | 1.02 | 1.02 | 98 | 1020.0 |
| 20260505033551 | 12 | 0 | 0.0 | 1.6 | 0.00 | 1.02 | 1.02 | 98 | 1019.8 |
| 20260505033051 | 12 | 89 | 0.0 | 1.6 | 0.00 | 1.02 | 1.02 | 97 | 1019.8 |
| 20260505032551 | 12 | 0 | 0.0 | 1.6 | 0.00 | 1.02 | 1.02 | 97 | 1019.7 |
| 20260505032050 | 12 | 0 | 0.0 | 1.6 | 0.00 | 1.02 | 1.02 | 97 | 1019.6 |
| 20260505031549 | 12 | 0 | 0.0 | 1.6 | 0.00 | 1.02 | 1.02 | 97 | 1019.6 |
| 20260505031051 | 12 | 0 | 0.0 | 1.6 | 0.00 | 1.02 | 1.02 | 97 | 1019.7 |
| 20260505030552 | 12 | 0 | 0.0 | 4.8 | 0.03 | 1.02 | 1.02 | 97 | 1019.7 |
| 20260505030050 | 12 | 74 | 0.0 | 4.8 | 0.03 | 1.02 | 1.02 | 97 | 1019.6 |
| 20260505025550 | 12 | 53 | 0.0 | 3.2 | 0.05 | 1.02 | 1.02 | 97 | 1019.6 |
| 20260505025053 | 12 | 0 | 0.0 | 1.6 | 0.08 | 1.02 | 1.02 | 97 | 1019.8 |
| 20260505024552 | 12 | 0 | 0.0 | 3.2 | 0.13 | 1.02 | 1.02 | 97 | 1019.8 |
| 20260505024049 | 12 | 77 | 0.0 | 3.2 | 0.15 | 1.02 | 1.02 | 97 | 1019.6 |
| 20260505023550 | 12 | 53 | 0.0 | 4.8 | 0.18 | 1.02 | 1.02 | 97 | 1019.7 |
| 20260505023057 | 12 | 0 | 1.6 | 4.8 | 0.25 | 1.02 | 1.02 | 97 | 1019.8 |
| 20260505022550 | 12 | 84 | 0.0 | 4.8 | 0.30 | 1.02 | 1.02 | 97 | 1020.0 |
| 20260505022050 | 12 | 98 | 0.0 | 6.4 | 0.36 | 1.02 | 1.02 | 97 | 1019.9 |
| 20260505021549 | 12 | 0 | 1.6 | 8.0 | 0.33 | 0.99 | 0.99 | 97 | 1020.0 |
| 20260505021050 | 12 | 68 | 0.0 | 9.7 | 0.36 | 0.99 | 0.99 | 97 | 1020.0 |
| 20260505020550 | 12 | 81 | 3.2 | 9.7 | 0.38 | 0.97 | 0.97 | 97 | 1020.1 |
| 20260505020055 | 12 | 125 | 1.6 | 8.0 | 0.46 | 0.97 | 0.97 | 97 | 1020.4 |
| 20260505015552 | 12 | 94 | 1.6 | 8.0 | 0.56 | 0.94 | 0.94 | 97 | 1020.8 |
| 20260505015055 | 12 | 0 | 0.0 | 3.2 | 0.56 | 0.94 | 0.94 | 97 | 1020.9 |
| 20260505014550 | 12 | 0 | 0.0 | 3.2 | 0.71 | 0.86 | 0.86 | 96 | 1020.7 |
| 20260505014050 | 12 | 59 | 0.0 | 4.8 | 0.84 | 0.84 | 0.84 | 96 | 1020.9 |
| 20260505013549 | 12 | 181 | 1.6 | 11.3 | 0.79 | 0.79 | 0.79 | 96 | 1021.1 |
| 20260505013051 | 12 | 126 | 0.0 | 11.3 | 0.74 | 0.74 | 0.74 | 96 | 1021.4 |
| 20260505012551 | 12 | 0 | 3.2 | 11.3 | 0.69 | 0.69 | 0.69 | 96 | 1021.4 |
| 20260505012055 | 12 | 184 | 1.6 | 17.7 | 0.64 | 0.64 | 0.64 | 96 | 1021.5 |
| 20260505011554 | 12 | 233 | 4.8 | 22.5 | 0.64 | 0.64 | 0.64 | 96 | 1021.5 |
| 20260505011052 | 12 | 42 | 9.7 | 22.5 | 0.61 | 0.61 | 0.61 | 95 | 1021.6 |
| 20260505010549 | 12 | 215 | 6.4 | 17.7 | 0.56 | 0.56 | 0.56 | 95 | 1021.7 |
| 20260505010100 | 12 | 240 | 4.8 | 16.1 | 0.48 | 0.48 | 0.48 | 95 | 1021.7 |
| 20260505005549 | 13 | 201 | 6.4 | 19.3 | 0.38 | 0.38 | 0.38 | 95 | 1021.6 |
| 20260505005051 | 13 | 226 | 6.4 | 27.4 | 0.36 | 0.36 | 0.36 | 94 | 1021.7 |
| 20260505004555 | 13 | 230 | 8.0 | 27.4 | 0.13 | 0.13 | 0.13 | 93 | 1021.4 |
| 20260505004050 | 13 | 105 | 0.0 | 1.6 | 0.00 | 0.00 | 0.00 | 93 | 1021.1 |
| 20260505003552 | 13 | 0 | 0.0 | 0.0 | 0.00 | 0.00 | 0.00 | 93 | 1020.3 |
| 20260505003104 | 13 | 0 | 0.0 | 0.0 | 0.00 | 0.00 | 0.00 | 93 | 1020.1 |
| 20260505002550 | 13 | 0 | 0.0 | 0.0 | 0.00 | 0.00 | 0.00 | 93 | 1020.2 |
| 20260505002050 | 13 | 0 | 0.0 | 0.0 | 0.00 | 0.00 | 0.00 | 93 | 1020.3 |
| 20260505001553 | 13 | 0 | 0.0 | 0.0 | 0.00 | 0.00 | 0.00 | 93 | 1020.3 |
| 20260505001050 | 13 | 0 | 0.0 | 0.0 | 0.00 | 0.00 | 0.00 | 93 | 1020.3 |
| 20260505000553 | 13 | 0 | 0.0 | 0.0 | 0.00 | 0.00 | 0.00 | 93 | 1020.3 |
| 20260505000105 | 13 | 0 | 0.0 | 0.0 | 0.00 | 0.00 | 0.00 | 93 | 1020.3 |
| 20260504235551 | 13 | 0 | 0.0 | 0.0 | 0.00 | 0.00 | 0.00 | 93 | 1020.4 |
| 20260504235052 | 13 | 0 | 0.0 | 0.0 | 0.00 | 0.00 | 0.00 | 93 | 1020.4 |
| 20260504234553 | 13 | 0 | 0.0 | 0.0 | 0.00 | 0.00 | 0.00 | 93 | 1020.5 |
| 20260504234055 | 13 | 0 | 0.0 | 0.0 | 0.00 | 0.00 | 0.00 | 93 | 1020.6 |
| 20260504233551 | 13 | 0 | 0.0 | 0.0 | 0.00 | 0.00 | 0.00 | 93 | 1020.7 |
| 20260504233102 | 13 | 0 | 0.0 | 0.0 | 0.00 | 0.00 | 0.00 | 93 | 1020.7 |
| 20260504232550 | 13 | 0 | 0.0 | 0.0 | 0.00 | 0.00 | 0.00 | 93 | 1020.6 |
| 20260504232053 | 13 | 0 | 0.0 | 0.0 | 0.00 | 0.00 | 0.00 | 93 | 1020.7 |
| 20260504231552 | 13 | 0 | 0.0 | 0.0 | 0.00 | 0.00 | 0.00 | 93 | 1020.6 |
| 20260504231052 | 13 | 0 | 0.0 | 0.0 | 0.00 | 0.00 | 0.00 | 93 | 1020.6 |
| 20260504230551 | 13 | 0 | 0.0 | 0.0 | 0.00 | 0.00 | 0.00 | 93 | 1020.6 |
| 20260504230057 | 13 | 0 | 0.0 | 0.0 | 0.00 | 0.00 | 0.00 | 93 | 1020.7 |
| 20260504225553 | 13 | 0 | 0.0 | 0.0 | 0.00 | 0.00 | 0.00 | 93 | 1020.7 |
| 20260504225055 | 13 | 0 | 0.0 | 0.0 | 0.00 | 0.00 | 0.00 | 93 | 1020.8 |
| 20260504224602 | 13 | 0 | 0.0 | 0.0 | 0.00 | 0.00 | 0.00 | 93 | 1020.8 |
| 20260504224055 | 13 | 0 | 0.0 | 0.0 | 0.00 | 0.00 | 0.00 | 93 | 1020.8 |
| 20260504223552 | 13 | 0 | 0.0 | 0.0 | 0.00 | 0.00 | 0.00 | 93 | 1020.7 |
| 20260504223057 | 13 | 0 | 0.0 | 0.0 | 0.00 | 0.00 | 0.00 | 93 | 1020.8 |
| 20260504222552 | 13 | 0 | 0.0 | 0.0 | 0.00 | 0.00 | 0.00 | 93 | 1020.9 |
| 20260504222052 | 13 | 0 | 0.0 | 0.0 | 0.00 | 0.00 | 0.00 | 93 | 1021.0 |
| 20260504221604 | 13 | 0 | 0.0 | 0.0 | 0.00 | 0.00 | 0.00 | 93 | 1021.1 |
| 20260504221052 | 13 | 0 | 0.0 | 0.0 | 0.00 | 0.00 | 0.00 | 93 | 1021.3 |
| 20260504220552 | 13 | 0 | 0.0 | 0.0 | 0.00 | 0.00 | 0.00 | 94 | 1021.4 |
| 20260504220123 | 13 | 0 | 0.0 | 0.0 | 0.00 | 0.00 | 0.00 | 94 | 1021.5 |
| 20260504215549 | 13 | 0 | 0.0 | 0.0 | 0.00 | 0.00 | 0.00 | 94 | 1021.5 |
| 20260504215052 | 13 | 0 | 0.0 | 0.0 | 0.00 | 0.00 | 0.00 | 94 | 1021.5 |
| 20260504214558 | 13 | 0 | 0.0 | 0.0 | 0.00 | 0.00 | 0.00 | 93 | 1021.5 |
| 20260504214052 | 13 | 0 | 0.0 | 0.0 | 0.00 | 0.00 | 0.00 | 93 | 1021.6 |
| 20260504213552 | 13 | 0 | 0.0 | 0.0 | 0.00 | 0.00 | 0.00 | 93 | 1021.6 |
| 20260504213102 | 13 | 0 | 0.0 | 0.0 | 0.00 | 0.00 | 0.00 | 93 | 1021.6 |
| 20260504212551 | 13 | 0 | 0.0 | 0.0 | 0.00 | 0.00 | 0.00 | 93 | 1021.7 |
| 20260504212051 | 13 | 0 | 0.0 | 0.0 | 0.00 | 0.00 | 0.00 | 93 | 1021.8 |
| 20260504211555 | 14 | 0 | 0.0 | 0.0 | 0.00 | 0.00 | 0.00 | 93 | 1021.8 |
| 20260504211053 | 14 | 0 | 0.0 | 0.0 | 0.00 | 0.00 | 0.00 | 93 | 1021.8 |
| 20260504210548 | 14 | 0 | 0.0 | 0.0 | 0.00 | 0.00 | 0.00 | 93 | 1021.8 |
| 20260504210052 | 14 | 0 | 0.0 | 0.0 | 0.00 | 0.00 | 0.00 | 93 | 1021.8 |
| 20260504205554 | 14 | 0 | 0.0 | 0.0 | 0.00 | 0.00 | 0.00 | 92 | 1022.0 |
| 20260504205051 | 14 | 0 | 0.0 | 0.0 | 0.00 | 0.00 | 0.00 | 92 | 1022.1 |
| 20260504204556 | 14 | 0 | 0.0 | 0.0 | 0.00 | 0.00 | 0.00 | 92 | 1022.1 |
| 20260504204053 | 14 | 0 | 0.0 | 0.0 | 0.00 | 0.00 | 0.00 | 92 | 1022.2 |
| 20260504203552 | 14 | 0 | 0.0 | 0.0 | 0.00 | 0.00 | 0.00 | 92 | 1022.2 |
| 20260504203054 | 14 | 0 | 0.0 | 0.0 | 0.00 | 0.00 | 0.00 | 92 | 1022.2 |
| 20260504202549 | 14 | 0 | 0.0 | 0.0 | 0.00 | 0.00 | 0.00 | 92 | 1022.3 |
| 20260504202049 | 14 | 0 | 0.0 | 0.0 | 0.00 | 0.00 | 0.00 | 92 | 1022.4 |
| 20260504201551 | 14 | 0 | 0.0 | 0.0 | 0.00 | 0.00 | 0.00 | 92 | 1022.4 |
| 20260504201052 | 14 | 0 | 0.0 | 0.0 | 0.00 | 0.00 | 0.00 | 92 | 1022.5 |
| 20260504200552 | 14 | 0 | 0.0 | 0.0 | 0.00 | 0.00 | 0.00 | 92 | 1022.5 |
| 20260504200057 | 15 | 0 | 0.0 | 0.0 | 0.00 | 0.00 | 0.00 | 92 | 1022.5 |
| 20260504195550 | 15 | 0 | 0.0 | 0.0 | 0.00 | 0.00 | 0.00 | 92 | 1022.5 |
| 20260504195050 | 15 | 0 | 0.0 | 0.0 | 0.00 | 0.00 | 0.00 | 91 | 1022.6 |
| 20260504194552 | 15 | 0 | 0.0 | 0.0 | 0.00 | 0.00 | 0.00 | 91 | 1022.6 |
| 20260504194052 | 15 | 0 | 0.0 | 0.0 | 0.00 | 0.00 | 0.00 | 91 | 1022.5 |
| 20260504193553 | 15 | 0 | 0.0 | 0.0 | 0.00 | 0.00 | 0.00 | 91 | 1022.6 |
| 20260504193054 | 15 | 0 | 0.0 | 0.0 | 0.00 | 0.00 | 0.00 | 91 | 1022.6 |
| 20260504192551 | 15 | 0 | 0.0 | 0.0 | 0.00 | 0.00 | 0.00 | 90 | 1022.5 |
| 20260504192052 | 15 | 0 | 0.0 | 1.6 | 0.00 | 0.00 | 0.00 | 90 | 1022.6 |
| 20260504191557 | 15 | 0 | 0.0 | 1.6 | 0.00 | 0.00 | 0.00 | 90 | 1022.5 |
| 20260504191052 | 15 | 0 | 0.0 | 1.6 | 0.00 | 0.00 | 0.00 | 89 | 1022.5 |
| 20260504190552 | 15 | 0 | 0.0 | 0.0 | 0.00 | 0.00 | 0.00 | 89 | 1022.5 |
| 20260504190106 | 15 | 0 | 0.0 | 0.0 | 0.00 | 0.00 | 0.00 | 89 | 1022.5 |
| 20260504185551 | 15 | 0 | 0.0 | 0.0 | 0.00 | 0.00 | 0.00 | 89 | 1022.5 |
| 20260504185052 | 15 | 0 | 0.0 | 1.6 | 0.00 | 0.00 | 0.00 | 89 | 1022.5 |
| 20260504184611 | 15 | 0 | 0.0 | 1.6 | 0.00 | 0.00 | 0.00 | 88 | 1022.6 |
| 20260504184052 | 15 | 0 | 0.0 | 0.0 | 0.00 | 0.00 | 0.00 | 88 | 1022.5 |
| 20260504183552 | 15 | 0 | 0.0 | 0.0 | 0.00 | 0.00 | 0.00 | 88 | 1022.5 |
| 20260504183054 | 15 | 0 | 0.0 | 0.0 | 0.00 | 0.00 | 0.00 | 88 | 1022.5 |
| 20260504182551 | 16 | 0 | 0.0 | 0.0 | 0.00 | 0.00 | 0.00 | 88 | 1022.5 |
| 20260504182053 | 16 | 0 | 0.0 | 0.0 | 0.00 | 0.00 | 0.00 | 88 | 1022.4 |
| 20260504181551 | 16 | 0 | 0.0 | 0.0 | 0.00 | 0.00 | 0.00 | 87 | 1022.4 |
| 20260504181049 | 16 | 0 | 0.0 | 0.0 | 0.00 | 0.00 | 0.00 | 88 | 1022.4 |
| 20260504180549 | 16 | 0 | 0.0 | 0.0 | 0.00 | 0.00 | 0.00 | 87 | 1022.5 |
| 20260504180053 | 16 | 0 | 0.0 | 0.0 | 0.00 | 0.00 | 0.00 | 87 | 1022.5 |
| 20260504175552 | 16 | 0 | 0.0 | 0.0 | 0.00 | 0.00 | 0.00 | 87 | 1022.6 |
| 20260504175053 | 16 | 0 | 0.0 | 0.0 | 0.00 | 0.00 | 0.00 | 87 | 1022.5 |
| 20260504174550 | 16 | 0 | 0.0 | 0.0 | 0.00 | 0.00 | 0.00 | 87 | 1022.4 |
| 20260504174050 | 16 | 0 | 0.0 | 0.0 | 0.00 | 0.00 | 0.00 | 87 | 1022.4 |
| 20260504173551 | 16 | 0 | 0.0 | 0.0 | 0.00 | 0.00 | 0.00 | 87 | 1022.5 |
| 20260504173056 | 16 | 0 | 0.0 | 0.0 | 0.00 | 0.00 | 0.00 | 86 | 1022.5 |
| 20260504172551 | 16 | 0 | 0.0 | 0.0 | 0.00 | 0.00 | 0.00 | 86 | 1022.4 |
| 20260504172052 | 16 | 0 | 0.0 | 0.0 | 0.00 | 0.00 | 0.00 | 86 | 1022.4 |
| 20260504171553 | 16 | 0 | 0.0 | 0.0 | 0.00 | 0.00 | 0.00 | 86 | 1022.5 |
| 20260504171052 | 16 | 0 | 0.0 | 0.0 | 0.00 | 0.00 | 0.00 | 86 | 1022.4 |
| 20260504170552 | 16 | 0 | 0.0 | 0.0 | 0.00 | 0.00 | 0.00 | 86 | 1022.5 |